Location: Bernau
(48.6424°N, 10.2056°E)
Time: 16:49:23
(UTC+00:00)

Daily predictions for brighter satellites

Satellite Brightness Start Highest point End
(mag) Time Altitude Azimuth Time Altitude Azimuth Time Altitude Azimuth
Cosmos 1340 Rocket 2.8 16:51:13 10° SSW 16:55:06 85° W 16:59:04 10° N
CZ-4B R/B 2.8 16:52:11 10° SSE 16:56:07 58° ENE 16:59:51 10° N
USA 215 3.4 16:50:27 10° ESE 16:57:02 89° SW 17:03:38 10° NW
Cosmos 2237 4.5 16:52:04 10° S 16:57:35 52° ESE 17:03:09 10° NE
DELTA 2 DEB (DPAF) 4.2 16:54:17 10° NNE 16:58:39 60° ESE 17:02:59 10° S
SKYMED 2 4.2 16:57:31 10° NNE 17:01:34 36° E 17:05:35 10° SSE
Gblst 52 Del rocket 4.2 16:56:09 10° WSW 17:01:54 79° SSE 17:07:23 10° ENE
Cosmos 1763 Rocket 3.4 16:57:34 10° NNW 17:02:46 75° ENE 17:07:52 10° SSE
ATLAS 2AS CENTAUR R/B 2.8 16:55:59 10° NW 17:03:05 85° SW 17:09:44 10° SE
Cosmos 1954 Rocket 4.1 16:58:09 10° S 17:03:16 55° ESE 17:08:22 10° NNE
Cosmos 2058 Rocket 4.0 17:02:46 10° NNE 17:06:30 26° ENE 17:10:15 10° SE
BREEZE-M DEB (TANK) 2.8 17:03:50 10° WSW 17:06:47 62° S 17:13:00 10° E
Cosmos 1869 4.1 17:05:43 10° NNE 17:09:08 28° ENE 17:12:33 10° SE
YAOGAN 1 3.5 17:05:32 10° ESE 17:09:09 27° ENE 17:12:46 10° N
COSMOS 2455 4.1 17:04:16 10° WSW 17:09:51 38° NW 17:15:29 10° NNE
Cosmos 540 Rocket 3.5 17:05:58 10° NNW 17:11:05 59° ENE 17:16:08 10° SE
Cosmos 1844 Rocket 2.6 17:08:11 10° NNW 17:13:49 74° ENE 17:19:22 10° SE
APEX 4.5 17:09:36 10° SW 17:15:38 75° WNW 17:21:08 10° NNE
ATLAS CENTAUR R/B 3.2 17:12:26 10° W 17:16:32 30° NW 17:20:30 10° NNE
Cosmos 841 Rocket 3.9 17:12:11 10° NNW 17:17:13 42° ENE 17:22:12 10° SE
Cosmos 2228 3.5 17:14:41 10° NNW 17:18:53 63° W 17:23:03 10° S
USA 281 4.1 17:13:02 10° NNE 17:19:18 49° NW 17:25:34 10° SW
Cosmos 1536 Rocket 4.2 17:15:46 10° SSW 17:20:00 57° WNW 17:24:19 10° N
PSLV R/B 4.4 17:17:06 10° SE 17:20:24 32° ENE 17:23:45 10° N
Cosmos 1892 2.7 17:23:33 10° S 17:27:17 83° W 17:31:04 10° N
CZ-4B R/B 3.5 17:24:27 10° SE 17:29:27 41° ENE 17:34:34 10° N
CZ-4B DEB 4.1 17:24:13 10° SSE 17:29:38 73° ENE 17:35:07 10° NNW
Cosmos 1825 2.0 17:26:38 10° S 17:30:17 65° E 17:33:58 10° NNE
Cosmos 1606 Rocket 3.6 17:26:01 10° N 17:30:21 86° W 17:34:41 10° S
CZ-4 R/B 4.4 17:29:47 10° SSE 17:33:53 89° E 17:38:03 10° NNW
ISS -0.5 17:32:55 10° WSW 17:34:13 12° SW 17:35:30 10° SSW
SJ-6B 4.5 17:34:43 16° NE 17:34:43 16° NE 17:36:53 10° NNE
Lacrosse 5 rocket 0.9 17:32:04 10° NW 17:35:40 89° SW 17:39:10 11° SE
Cosmos 1844 3.8 17:30:27 10° NNW 17:36:17 89° WSW 17:42:03 10° SSE
IRIDIUM 114 4.4 17:31:51 10° N 17:36:58 52° E 17:42:03 10° SSE
Meteor 1-11 4.3 17:32:02 10° S 17:37:50 88° ESE 17:43:39 10° NNE
Cosmos 2219 Rocket 2.9 17:33:49 10° SSE 17:38:38 31° ESE 17:42:36 14° NE
Cosmos 2360 Rocket 2.2 17:34:10 10° SSW 17:39:44 65° ESE 17:45:21 10° NNE
YAOGAN 3 4.5 17:38:08 10° SSE 17:42:28 82° ENE 17:46:50 10° NNW
S3M 4.5 17:37:40 10° SSE 17:43:28 38° E 17:49:17 10° NNE
Nadezhda 2 Rocket 4.5 17:37:55 10° N 17:44:09 89° E 17:50:15 10° S
Cosmos 1892 Rocket 3.5 17:40:21 10° S 17:44:44 68° E 17:49:06 10° NNE
IRIDIUM 103 4.3 17:40:59 10° N 17:46:11 63° E 17:51:20 10° SSE
Cosmos 1461 3.1 17:43:33 10° SW 17:47:50 79° NW 17:51:43 14° NE
Cosmos 676 Rocket 4.2 17:43:32 10° SSW 17:48:49 73° WNW 17:54:05 10° NNE
COSMO-SKYMED 1 2.8 17:45:18 10° N 17:49:40 75° WNW 17:53:59 10° SSW
Cosmos 1340 2.5 17:46:12 10° N 17:49:52 65° ENE 17:53:30 10° SSE
Cosmos 2278 Rocket 3.3 17:45:45 10° N 17:50:25 25° NE 17:52:12 22° ENE
Cosmos 44 Rocket 3.7 17:47:32 10° S 17:51:53 40° ESE 17:54:11 24° ENE
CZ-4C R/B 3.2 17:49:07 10° NNE 17:52:57 80° WNW 17:56:33 10° SSW
Cosmos 2322 Rocket 2.4 17:47:47 10° SW 17:53:23 73° WNW 17:59:02 10° NNE
ATLAS 5 CENTAUR R/B 3.9 17:51:47 10° NNW 17:53:59 13° N 17:56:06 11° NNE
Cosmos 2333 Rocket 2.2 17:49:27 10° S 17:54:58 58° ESE 18:00:15 11° NE
Aureole 2 3.8 17:52:02 10° NNW 17:55:00 79° ENE 17:57:26 14° SSE
BlueWalker 3 2.5 17:51:34 10° WNW 17:55:20 45° N 17:56:49 30° ENE
Cosmos 1633 2.6 17:55:53 10° SSW 17:59:13 70° W 18:02:34 10° N
Cosmos 1726 Rocket 4.3 17:57:24 10° NNW 18:01:37 53° W 18:05:49 10° S
CZ-4 R/B 1.5 17:57:40 10° SSE 18:01:39 52° ENE 18:05:35 10° N
Cosmos 1606 3.0 17:58:51 10° N 18:02:32 42° ENE 18:03:58 29° SE
IRIDIUM 106 4.3 17:59:14 10° N 18:04:29 88° E 18:09:43 10° S
SL-16 R/B 3.3 18:04:15 10° SW 18:09:38 43° NW 18:15:03 10° NNE
COSMOS 2428 3.3 18:05:00 10° SSE 18:10:00 33° ESE 18:11:03 31° E
RESURS DK-1 3.7 18:06:39 10° NW 18:10:32 41° WSW 18:14:24 10° S
SL-4 R/B 1.6 18:08:31 10° WNW 18:12:03 73° NNE 18:12:47 53° E
Landsat 7 4.5 18:13:13 33° ENE 18:13:13 33° ENE 18:17:15 10° N
CSL-04 Rocket 4.1 18:12:12 31° E 18:13:41 37° ENE 18:18:38 10° N
Cosmos 2333 4.1 18:08:37 10° SSW 18:14:13 76° ESE 18:18:59 15° NNE
Genesis I 3.5 18:12:01 10° SW 18:15:57 68° NW 18:17:45 30° NNE
Cosmos 1626 Rocket 3.6 18:13:36 10° S 18:17:46 51° E 18:19:21 33° NE
Cosmos 1943 Rocket 3.7 18:16:58 10° N 18:20:45 19° NE 18:20:45 19° NE
Spot 1 3.9 18:21:45 52° E 18:22:04 54° ESE 18:26:03 10° S
Cosmos 1386 Rocket 4.4 18:20:03 10° N 18:26:06 83° W 18:32:09 10° S
Okean O Rocket 1.5 18:22:09 10° SSE 18:26:32 86° ENE 18:30:59 10° NNW
Cosmos 1745 Rocket 4.0 18:21:13 10° N 18:27:30 87° W 18:33:40 10° S
Lacrosse 5 2.5 18:26:04 10° W 18:31:02 50° NNW 18:33:04 32° NNE
Feng Yun 1-1 Rocket 4.1 18:25:45 10° SSE 18:31:17 83° ENE 18:36:45 10° NNW
IGS 5A 3.3 18:31:16 60° SE 18:31:52 72° ENE 18:35:59 10° N
Okean-O 4.1 18:34:20 24° NNE 18:34:20 24° NNE 18:36:24 10° N
CZ-2C R/B 3.8 18:30:09 10° N 18:34:03 55° E 18:47:27 10° SSE
Cosmos 2322 3.6 18:28:59 10° SSW 18:34:39 66° ESE 18:37:02 35° NE
Okean 1-7 Rocket 3.4 18:32:47 10° S 18:37:12 78° E 18:39:09 33° NNE
DMSP B5D1-3 4.5 18:32:38 10° NNE 18:37:46 83° WNW 18:42:53 10° SSW
YAOGAN 1 4.1 18:41:05 10° SSW 18:45:04 36° W 18:49:06 10° NNW
Cosmos 1709 Rocket 3.8 18:39:32 10° N 18:45:44 84° E 18:51:50 10° S
Cosmos 1814 Rocket 4.2 18:46:14 10° NNW 18:51:35 73° WSW 18:54:29 28° S
Gblst 52 Del rocket 4.2 18:48:15 10° W 18:53:46 65° N 18:54:30 58° NE
ATLAS CENTAUR R/B 4.1 18:54:47 10° NW 18:56:26 12° NNW 18:57:41 11° N
SJ-6B 4.4 19:10:10 31° NW 19:10:10 31° NW 19:12:25 10° NNW
Lacrosse 5 rocket 3.8 19:12:04 10° W 19:14:04 14° SW 19:14:37 14° SW
Cosmos 2208 Rocket 4.4 19:12:48 10° NNW 19:16:55 57° NNW 19:16:55 57° NNW
Cosmos 2219 Rocket 2.9 19:16:57 10° SW 19:22:22 49° NW 19:24:23 34° N
Lacrosse 4 Rocket 4.1 19:19:06 10° NNW 19:19:34 12° N 19:19:34 12° N
Cosmos 2360 Rocket 4.0 19:19:25 10° WSW 19:24:12 27° NW 19:28:12 13° N
Meteor 2-2 Rocket 4.5 19:21:49 10° NNW 19:26:37 64° NNW 19:26:37 64° NNW
BlueWalker 3 4.5 19:30:16 10° WNW 19:31:36 20° WNW 19:31:36 20° WNW
Cosmos 2278 Rocket 2.6 19:29:24 10° NNW 19:34:05 58° NW 19:34:05 58° NW
CZ-4 R/B 4.2 19:34:10 10° SW 19:36:49 17° W 19:39:27 10° NW
Cosmos 2333 Rocket 3.8 19:34:38 10° WSW 19:39:36 30° NW 19:42:19 21° N
ATLAS 5 CENTAUR R/B 4.1 19:36:06 10° NNW 19:37:28 16° NNW 19:37:28 16° NNW
BREEZE-M DEB (TANK) 3.9 19:31:58 10° WSW 19:38:56 48° WSW 19:38:56 48° WSW
Resurs 01 Rocket 4.4 19:45:53 11° NNW 19:45:53 11° NNW 19:46:02 10° NNW
Cosmos 2369 Rocket 4.4 19:45:04 10° N 19:46:17 15° N 19:46:17 15° N
COSMOS 2428 3.7 19:48:38 10° SW 19:53:08 43° W 19:53:08 43° W
Cosmos 1943 Rocket 4.0 20:00:01 10° NNW 20:02:17 25° NNW 20:02:17 25° NNW
Lacrosse 5 4.2 20:10:19 10° WNW 20:12:17 20° NW 20:12:17 20° NW
